sat.trackr.live / text

‹ back to catalog

STARLINK-30344

NORAD 57737 · 2023-131F

PAYLOAD ACTIVE UNKNOWN

§ Identity

Operator
Country
US
Launch date
2023-09-01
Launch site
AFETR
Launch vehicle
Mass (kg)
RCS (m²)

Purposes: comms

External: N2YO · Heavens-Above · Gunter

§ Orbital elements

Epoch: 2026-05-24T23:09:38.331072Z

Period
95.62 min
Inclination
43.0023°
Eccentricity
0.0000140
Mean motion
15.06017915 rev/d
Perigee alt
548.3 km
Apogee alt
548.5 km
Semi-major
6,926.5 km
B*
-3.8810e-5
RAAN
115.1645°
Arg perigee
0.7744°
Mean anomaly
359.3099°
Rev number
15,142

§ Raw data

STARLINK-303441 57737U 23131F   26144.96502698 -.00000786  00000+0 -38810-4 0  99972 57737  43.0023 115.1645 0000140   0.7744 359.3099 15.06017915151429

JSON: /api/v1/satellites/57737 · /tle

For live sub-satellite position, see the globe view (requires WebGL).

§ Visibility from observer

Set your observer location to see the next 7 days of passes ≥ 10°. The values pass through the URL so the page stays shareable.

No JS? Fill the form by hand. The geolocation button needs JavaScript.